Tracking 30922 objects as of 2-Jul-2025
HD Live streaming from Space Station
objects crossing your sky now

THORAD AGENA D DEB

Track THORAD AGENA D DEB now!
10-day predictions


NORAD ID: 5390
Int'l Code: 1970-025KV
Perigee: 910.6 km
Apogee: 985.7 km
Inclination: 100.1 °
Period: 103.9 minutes
Semi major axis: 7319 km
RCS: 0.0078 m2 (small)
Launch date: April 8, 1970
Source: United States (US)
Launch site: AIR FORCE WESTERN TEST RANGE (AFWTR)

Note: This is SATELLITE DEBRIS
Your satellite tracking list
Your tracking list is empty




NASA's NSSDC Master Catalog

Two Line Element Set (TLE):
1 05390U 70025KV  25182.58223236  .00000670  00000-0  61527-3 0  9997
2 05390 100.1119 198.4733 0051285 152.9742 332.6466 13.86479460760605
Source of the keplerian elements: AFSPC